Location: Igri�s
(42.2144°N, 0.4320°W)
Time: 14:57:24
(UTC+00:00)

NOSS 3-2 (C) - Visible Passes

Search period start: 09 December 2021 00:00
Search period end: 19 December 2021 00:00
Orbit: 770 x 1442 km, 63.4° (Epoch: 03 November)

Date Brightness Start Highest point End Pass type
(mag) Time Alt. Az. Time Alt. Az. Time Alt. Az.
09 Dec 5.4 03:51:07 20° NNE 03:51:07 20° NNE 03:53:03 10° NNE visible
09 Dec 5.0 05:38:34 16° NNW 05:39:22 17° NNW 05:43:33 10° NNE visible
10 Dec 6.1 03:07:57 11° NE 03:07:57 11° NE 03:08:16 10° NE visible
10 Dec 5.0 04:55:24 20° N 04:55:24 20° N 04:58:53 10° NNE visible
10 Dec 5.5 06:45:15 10° NNW 06:47:47 12° N 06:50:28 10° NNE visible
11 Dec 5.4 04:12:11 18° N 04:12:11 18° N 04:14:14 10° NNE visible
11 Dec 5.4 05:59:38 11° NNW 06:02:03 13° N 06:05:03 10° NNE visible
12 Dec 5.9 03:28:56 13° NNE 03:28:56 13° NNE 03:29:35 10° NNE visible
12 Dec 5.3 05:16:23 15° NNW 05:16:25 15° NNW 05:20:07 10° NNE visible
13 Dec 5.5 04:33:06 16° N 04:33:06 16° N 04:35:23 10° NNE visible
13 Dec 5.6 06:22:17 10° NNW 06:24:56 12° N 06:27:45 10° NNE visible
14 Dec 5.8 03:49:48 13° NNE 03:49:48 13° NNE 03:50:44 10° NNE visible
14 Dec 5.5 05:37:15 11° NNW 05:39:12 12° N 05:41:56 10° NNE visible
15 Dec 5.5 04:53:55 13° N 04:53:55 13° N 04:56:45 10° NNE visible
15 Dec 5.6 06:44:01 10° NNW 06:47:48 15° NNE 06:51:51 10° NE visible
16 Dec 5.8 04:10:35 13° N 04:10:35 13° N 04:11:55 10° NNE visible
16 Dec 5.6 05:59:08 10° NNW 06:02:06 13° N 06:05:15 10° NE visible
17 Dec 5.6 05:14:40 11° NNW 05:16:22 12° N 05:19:03 10° NNE visible
18 Dec 5.7 04:31:19 12° N 04:31:19 12° N 04:33:30 10° NNE visible
18 Dec 5.7 06:20:33 10° NNW 06:24:53 17° NNE 06:29:35 10° ENE visible
